When you browse on this site, cookies collect data to enhance your experience and personalize the content and advertising you see.
Visit our Privacy Policy to learn more. By continuing to use the site, you agree to this use of cookies and data.
  • In Deutschland
  • Länderverzeichnis
  • Für 7 Tage
  • Wassertemperatur
  • Wetterkarte
  • Widgets
  • user-avatar
    Anmelden

    Stündliche Wetter Sankt Pölten

    Heute, 17 November, Sonntag

    Zeit Temperatur Niederschläge Wind Luftdruck Luftfeuchtigkeit
    00:00 +8°C° 0.1 mm 2 m/S 733 mmHg 89%
    01:00 +8°C° 0 mm 2 m/S 733 mmHg 86%
    02:00 +9°C° 0 mm 2 m/S 733 mmHg 87%
    03:00 +9°C° 0 mm 3 m/S 732 mmHg 88%
    04:00 +9°C° 0 mm 3 m/S 732 mmHg 89%
    05:00 +9°C° 0 mm 3 m/S 731 mmHg 90%
    06:00 +8°C° 0 mm 4 m/S 731 mmHg 92%
    07:00 +8°C° 0 mm 4 m/S 730 mmHg 93%
    08:00 +10°C° 0 mm 4 m/S 730 mmHg 89%
    09:00 +11°C° 0 mm 4 m/S 730 mmHg 85%
    10:00 +12°C° 0 mm 5 m/S 730 mmHg 81%
    11:00 +13°C° 0 mm 5 m/S 730 mmHg 77%
    12:00 +14°C° 0 mm 5 m/S 730 mmHg 72%
    13:00 +15°C° 0 mm 6 m/S 729 mmHg 68%
    14:00 +15°C° 0 mm 6 m/S 729 mmHg 71%
    15:00 +14°C° 0 mm 5 m/S 729 mmHg 75%
    16:00 +13°C° 0 mm 5 m/S 728 mmHg 78%
    17:00 +13°C° 0 mm 5 m/S 728 mmHg 80%
    18:00 +12°C° 0 mm 4 m/S 728 mmHg 83%
    19:00 +12°C° 0 mm 4 m/S 728 mmHg 85%
    20:00 +12°C° 0 mm 4 m/S 728 mmHg 85%
    21:00 +11°C° 0 mm 4 m/S 728 mmHg 86%
    22:00 +11°C° 0 mm 4 m/S 728 mmHg 86%
    23:00 +11°C° 0.2 mm 3 m/S 728 mmHg 87%

    Morgen, 18 November, Montag

    Zeit Temperatur Niederschläge Wind Luftdruck Luftfeuchtigkeit
    00:00 +11°C° 0.2 mm 3 m/S 728 mmHg 88%
    01:00 +10°C° 0.2 mm 3 m/S 728 mmHg 89%
    02:00 +10°C° 0.1 mm 2 m/S 728 mmHg 90%
    03:00 +9°C° 0.1 mm 2 m/S 727 mmHg 92%
    04:00 +10°C° 0.1 mm 1 m/S 727 mmHg 94%
    05:00 +9°C° 0.2 mm 2 m/S 727 mmHg 94%
    06:00 +9°C° 0.2 mm 2 m/S 728 mmHg 93%
    07:00 +9°C° 0.2 mm 2 m/S 728 mmHg 93%
    08:00 +8°C° 0.3 mm 2 m/S 728 mmHg 92%
    09:00 +8°C° 0.3 mm 2 m/S 729 mmHg 91%
    10:00 +7°C° 0.3 mm 3 m/S 729 mmHg 90%
    11:00 +7°C° 0.2 mm 3 m/S 729 mmHg 87%
    12:00 +7°C° 0.2 mm 3 m/S 730 mmHg 85%
    13:00 +7°C° 0.2 mm 3 m/S 730 mmHg 83%
    14:00 +7°C° 0 mm 2 m/S 731 mmHg 83%
    15:00 +7°C° 0 mm 2 m/S 731 mmHg 84%
    16:00 +7°C° 0 mm 2 m/S 731 mmHg 84%
    17:00 +7°C° 0 mm 1 m/S 732 mmHg 86%
    18:00 +6°C° 0 mm 1 m/S 733 mmHg 88%
    19:00 +6°C° 0 mm 1 m/S 733 mmHg 89%
    20:00 +6°C° 0 mm 1 m/S 734 mmHg 89%
    21:00 +6°C° 0 mm 1 m/S 734 mmHg 88%
    22:00 +6°C° 0 mm 1 m/S 734 mmHg 87%
    23:00 +6°C° 0 mm 1 m/S 735 mmHg 88%

    übermorgen, 19 November, Dienstag

    Zeit Temperatur Niederschläge Wind Luftdruck Luftfeuchtigkeit
    00:00 +6°C° 0 mm 1 m/S 735 mmHg 89%
    01:00 +6°C° 0 mm 1 m/S 735 mmHg 89%
    02:00 +6°C° 0 mm 1 m/S 735 mmHg 89%
    03:00 +6°C° 0 mm 1 m/S 734 mmHg 90%
    04:00 +5°C° 0 mm 2 m/S 734 mmHg 90%
    05:00 +5°C° 0 mm 2 m/S 734 mmHg 91%
    06:00 +5°C° 0 mm 2 m/S 734 mmHg 91%
    07:00 +5°C° 0 mm 2 m/S 734 mmHg 92%
    08:00 +7°C° 0 mm 2 m/S 734 mmHg 87%
    09:00 +8°C° 0 mm 3 m/S 734 mmHg 81%
    10:00 +10°C° 0 mm 3 m/S 734 mmHg 76%
    11:00 +10°C° 0 mm 3 m/S 734 mmHg 73%
    12:00 +11°C° 0 mm 3 m/S 734 mmHg 70%
    13:00 +12°C° 0 mm 3 m/S 734 mmHg 67%
    14:00 +11°C° 0 mm 3 m/S 734 mmHg 72%
    15:00 +10°C° 0 mm 2 m/S 734 mmHg 76%
    16:00 +9°C° 0 mm 2 m/S 734 mmHg 81%
    17:00 +8°C° 0 mm 2 m/S 734 mmHg 84%
    18:00 +7°C° 0 mm 2 m/S 735 mmHg 87%
    19:00 +7°C° 0 mm 1 m/S 735 mmHg 90%
    20:00 +7°C° 0 mm 1 m/S 735 mmHg 89%
    21:00 +7°C° 0 mm 1 m/S 735 mmHg 88%
    22:00 +7°C° 0 mm 1 m/S 736 mmHg 88%
    23:00 +7°C° 0.1 mm 1 m/S 736 mmHg 89%

    20 November, Mittwoch

    Zeit Temperatur Niederschläge Wind Luftdruck Luftfeuchtigkeit
    00:00 +6°C° 0.1 mm 1 m/S 736 mmHg 90%
    01:00 +6°C° 0.1 mm 1 m/S 736 mmHg 92%
    02:00 +6°C° 0.1 mm 1 m/S 736 mmHg 92%
    03:00 +6°C° 0.1 mm 1 m/S 736 mmHg 93%
    04:00 +5°C° 0.1 mm 0 m/S 736 mmHg 94%
    05:00 +5°C° 0 mm 0 m/S 736 mmHg 94%
    06:00 +5°C° 0 mm 0 m/S 736 mmHg 94%
    07:00 +5°C° 0 mm 0 m/S 736 mmHg 94%
    08:00 +6°C° 0 mm 0 m/S 736 mmHg 91%
    09:00 +7°C° 0 mm 0 m/S 737 mmHg 88%
    10:00 +7°C° 0 mm 0 m/S 737 mmHg 85%
    11:00 +9°C° 0 mm 1 m/S 737 mmHg 83%
    12:00 +9°C° 0 mm 1 m/S 736 mmHg 82%
    13:00 +10°C° 0 mm 1 m/S 736 mmHg 80%
    14:00 +9°C° 0 mm 1 m/S 736 mmHg 83%
    15:00 +9°C° 0 mm 1 m/S 736 mmHg 86%
    16:00 +9°C° 0 mm 1 m/S 736 mmHg 88%
    17:00 +8°C° 0 mm 1 m/S 736 mmHg 91%
    18:00 +7°C° 0 mm 1 m/S 736 mmHg 93%
    19:00 +7°C° 0 mm 1 m/S 736 mmHg 95%
    20:00 +7°C° 0 mm 1 m/S 736 mmHg 95%
    21:00 +7°C° 0 mm 1 m/S 736 mmHg 95%
    22:00 +7°C° 0 mm 1 m/S 736 mmHg 95%
    23:00 +7°C° 0 mm 1 m/S 736 mmHg 95%

    21 November, Donnerstag

    Zeit Temperatur Niederschläge Wind Luftdruck Luftfeuchtigkeit
    00:00 +6°C° 0 mm 2 m/S 735 mmHg 95%
    01:00 +6°C° 0 mm 2 m/S 735 mmHg 95%
    02:00 +6°C° 0 mm 2 m/S 735 mmHg 95%
    03:00 +6°C° 0 mm 2 m/S 735 mmHg 95%
    04:00 +6°C° 0 mm 2 m/S 734 mmHg 94%
    05:00 +6°C° 0 mm 2 m/S 734 mmHg 94%
    06:00 +6°C° 0 mm 2 m/S 734 mmHg 94%
    07:00 +6°C° 0 mm 1 m/S 734 mmHg 94%
    08:00 +7°C° 0 mm 2 m/S 734 mmHg 90%
    09:00 +8°C° 0 mm 2 m/S 735 mmHg 86%
    10:00 +9°C° 0 mm 2 m/S 735 mmHg 82%
    11:00 +10°C° 0 mm 2 m/S 735 mmHg 78%
    12:00 +11°C° 0 mm 3 m/S 734 mmHg 74%
    13:00 +12°C° 0 mm 3 m/S 734 mmHg 71%
    14:00 +11°C° 0 mm 3 m/S 734 mmHg 75%
    15:00 +10°C° 0 mm 3 m/S 734 mmHg 79%
    16:00 +9°C° 0 mm 3 m/S 734 mmHg 83%
    17:00 +9°C° 0 mm 3 m/S 734 mmHg 85%
    18:00 +8°C° 0 mm 3 m/S 734 mmHg 87%
    19:00 +7°C° 0 mm 3 m/S 734 mmHg 89%
    20:00 +7°C° 0 mm 2 m/S 734 mmHg 89%
    21:00 +7°C° 0 mm 2 m/S 734 mmHg 89%
    22:00 +7°C° 0 mm 2 m/S 734 mmHg 89%
    23:00 +7°C° 0 mm 2 m/S 734 mmHg 89%

    22 November, Freitag

    Zeit Temperatur Niederschläge Wind Luftdruck Luftfeuchtigkeit
    00:00 +7°C° 0 mm 1 m/S 734 mmHg 89%
    01:00 +7°C° 0 mm 1 m/S 733 mmHg 89%
    02:00 +7°C° 0 mm 1 m/S 733 mmHg 90%
    03:00 +6°C° 0 mm 1 m/S 734 mmHg 90%
    04:00 +6°C° 0 mm 1 m/S 734 mmHg 90%
    05:00 +5°C° 0 mm 1 m/S 734 mmHg 90%
    06:00 +5°C° 0 mm 1 m/S 734 mmHg 90%
    07:00 +5°C° 0 mm 1 m/S 734 mmHg 90%
    08:00 +6°C° 0 mm 1 m/S 734 mmHg 85%
    09:00 +8°C° 0 mm 1 m/S 734 mmHg 80%
    10:00 +9°C° 0 mm 1 m/S 735 mmHg 75%
    11:00 +10°C° 0 mm 1 m/S 734 mmHg 73%
    12:00 +11°C° 0 mm 1 m/S 734 mmHg 70%
    13:00 +12°C° 0 mm 2 m/S 734 mmHg 67%
    14:00 +10°C° 0 mm 2 m/S 734 mmHg 73%
    15:00 +9°C° 0 mm 2 m/S 734 mmHg 78%
    16:00 +8°C° 0 mm 2 m/S 733 mmHg 84%
    17:00 +7°C° 0 mm 2 m/S 733 mmHg 86%
    18:00 +6°C° 0 mm 2 m/S 733 mmHg 88%
    19:00 +6°C° 0 mm 2 m/S 733 mmHg 90%
    20:00 +6°C° 0 mm 2 m/S 733 mmHg 90%
    21:00 +6°C° 0 mm 2 m/S 733 mmHg 91%
    22:00 +6°C° 0 mm 2 m/S 733 mmHg 91%
    23:00 +6°C° 0 mm 2 m/S 733 mmHg 92%
    Mehr zeigen